Temp
11 11 12 11 11 11 12 12 12 12 12 13 13 13 12 12 12 12 12 11 11 12 12 12 12 13 13 13 14 14 14 14 14 14 14 14 14 13 13 13 13 13 12 12 12
11 12 12 12 12 12 12 12 12 12 12 13 13 13 13 12 12 12 11 11 11 12 12 12 12 12 13 13 13 14 14 13 14 14 14 14 14 14 13 13 13 13 12 12 12
11 12 12 12 12 12 12 12 12 12 12 13 13 13 13 13 12 12 11 12 12 12 12 12 12 12 13 13 13 14 14 14 14 14 14 14 14 14 14 14 13 13 12 12 12
12 12 12 12 12 12 12 12 12 12 12 12 13 13 13 12 12 11 12 12 12 12 12 12 12 13 13 13 14 14 14 14 14 14 15 14 14 14 14 13 13 13 12 12 11
12 12 12 12 12 12 12 12 12 12 12 12 12 13 12 12 12 12 12 12 12 12 12 12 12 13 13 13 14 14 14 14 14 14 14 15 15 15 14 14 14 13 12 12 11
12 12 12 12 12 12 12 12 12 12 12 12 12 12 12 12 12 12 12 12 12 12 12 12 13 13 13 14 14 14 14 15 15 15 15 14 15 14 14 14 14 12 12 12 12
12 12 12 12 12 12 12 12 12 12 12 12 12 12 12 12 12 11 11 12 12 12 12 12 13 13 14 14 14 14 15 15 15 14 15 15 14 14 14 14 13 12 11 10 11
12 12 12 12 12 12 12 12 12 12 12 12 12 12 12 12 12 11 11 12 12 12 12 12 13 13 14 14 14 14 14 15 14 15 15 15 15 14 14 13 11 11 11 11 10
11 12 12 12 12 12 12 12 12 12 12 12 12 12 12 12 12 11 12 12 12 12 12 12 13 13 14 14 14 14 14 15 15 15 15 14 14 14 14 12 11 10 10 10 10
11 11 11 11 12 12 12 12 12 12 11 11 12 12 12 12 11 11 11 12 12 12 11 12 13 13 14 14 14 14 14 15 14 14 14 14 14 14 13 12 11 10 9 9 8
11 11 11 11 11 11 11 12 12 11 11 11 12 12 12 12 11 11 11 12 12 12 11 12 13 13 13 13 13 14 14 14 15 14 14 14 13 13 12 12 10 10 9 9 8
10 11 11 11 11 11 11 11 12 12 11 11 12 12 12 12 11 11 11 11 12 12 11 12 12 13 13 13 13 14 14 15 14 15 14 14 13 13 12 12 11 11 10 10 9
10 10 10 10 11 11 11 11 11 11 11 11 12 11 12 12 11 11 11 11 12 12 12 12 12 12 13 13 13 14 14 15 15 15 14 13 13 12 12 12 12 11 11 11 10
9 9 10 10 10 10 11 11 11 11 11 12 12 11 12 12 11 11 11 11 11 11 12 12 12 12 12 13 14 14 15 15 15 14 14 13 13 12 12 12 12 11 11 10 10
9 9 9 10 10 10 11 10 10 10 12 11 11 11 12 11 12 11 11 10 11 12 11 12 12 13 13 13 14 14 15 15 15 14 14 13 13 13 13 12 12 12 11 11 11
9 9 9 10 10 10 10 9 10 10 11 11 11 11 11 11 11 12 11 11 11 11 12 12 12 13 13 13 14 14 15 15 15 14 15 13 12 13 13 13 12 12 12 12 11
8 9 9 9 9 10 9 9 9 10 11 11 11 11 11 11 11 11 11 10 10 10 11 11 12 13 13 14 14 15 14 16 16 16 16 13 12 14 14 13 13 13 12 12 11
8 9 9 9 9 9 9 9 9 11 11 11 11 12 11 12 11 11 11 10 11 11 11 12 13 14 14 14 15 15 15 16 15 16 15 13 13 13 13 14 14 13 12 12 12
8 8 9 9 9 9 9 8 10 10 10 11 11 11 11 11 11 11 11 11 11 11 12 12 13 14 15 15 15 15 15 16 15 13 13 13 13 13 13 13 13 13 13 12 12
8 8 8 9 8 8 8 9 10 10 10 11 11 11 11 11 12 12 11 11 11 11 12 12 13 14 15 15 15 15 15 15 15 15 15 14 12 14 14 13 13 13 14 13 12
8 8 8 8 8 8 8 9 10 10 11 11 11 12 12 12 12 12 12 12 12 12 12 12 12 14 14 14 14 15 14 15 15 15 17 16 16 16 15 14 14 14 14 14 13
7 8 8 7 7 7 8 9 10 10 10 11 11 12 13 12 12 12 13 13 13 13 13 13 12 13 13 14 14 14 15 15 16 14 14 13 16 16 15 15 14 13 14 13 13
8 8 8 7 7 7 8 8 9 11 11 11 12 12 12 12 13 13 14 14 14 14 13 13 12 13 14 14 14 14 15 16 16 16 15 16 17 16 16 16 15 13 13 13 13
8 7 7 7 7 7 8 8 9 11 11 11 12 12 13 13 13 14 14 14 14 14 14 14 13 14 15 15 14 14 15 16 16 15 15 16 17 17 16 16 15 14 13 13 12
7 8 8 7 7 8 8 9 10 10 11 11 12 13 13 13 13 14 14 13 14 14 13 13 13 14 14 14 14 15 15 16 16 16 15 16 16 17 17 17 15 14 13 13 12
7 8 8 8 8 8 8 9 10 11 12 12 12 13 13 13 13 13 13 13 14 14 14 13 14 14 14 14 15 14 15 15 14 14 15 15 15 16 16 16 15 13 13 12 12
7 8 8 8 8 8 8 9 10 11 11 12 12 13 13 13 12 13 12 12 13 14 13 13 13 14 13 13 13 14 14 14 14 14 15 14 15 15 15 15 15 13 12 11 11
Height
3155 3155 3154 3154 3154 3154 3154 3155 3155 3156 3156 3157 3158 3160 3163 3165 3168 3171 3174 3178 3180 3182 3183 3185 3185 3186 3186 3186 3187 3187 3188 3187 3187 3187 3188 3187 3187 3188 3189 3189 3189 3190 3190 3189 3188
3155 3154 3153 3153 3153 3153 3153 3154 3154 3154 3155 3155 3156 3158 3160 3163 3167 3170 3174 3176 3179 3182 3183 3185 3186 3186 3187 3187 3188 3188 3188 3188 3188 3188 3189 3189 3189 3189 3189 3189 3189 3189 3188 3188 3187
3154 3153 3152 3152 3152 3152 3152 3153 3153 3153 3153 3154 3155 3156 3158 3162 3166 3168 3169 3174 3178 3181 3183 3185 3186 3187 3187 3188 3188 3188 3189 3189 3188 3188 3189 3188 3188 3189 3188 3188 3188 3188 3187 3188 3187
3152 3152 3151 3151 3151 3151 3151 3151 3152 3152 3152 3153 3153 3154 3156 3160 3165 3165 3168 3173 3178 3181 3183 3185 3186 3187 3187 3188 3188 3189 3189 3189 3189 3188 3188 3188 3188 3187 3186 3187 3186 3187 3187 3187 3186
3151 3150 3149 3149 3149 3149 3149 3150 3150 3150 3151 3151 3152 3153 3155 3159 3161 3163 3168 3173 3177 3180 3183 3185 3185 3186 3187 3188 3188 3189 3189 3189 3189 3188 3188 3187 3186 3186 3185 3184 3183 3185 3186 3185 3185
3148 3147 3147 3147 3147 3147 3147 3148 3148 3149 3149 3150 3151 3152 3154 3158 3160 3163 3167 3172 3176 3180 3183 3184 3184 3185 3187 3188 3189 3189 3189 3189 3188 3187 3187 3186 3186 3185 3184 3182 3181 3183 3185 3185 3184
3145 3145 3144 3145 3145 3145 3145 3146 3146 3147 3148 3148 3150 3151 3153 3157 3159 3162 3166 3171 3175 3179 3182 3183 3185 3186 3186 3188 3189 3189 3189 3187 3186 3186 3185 3185 3185 3184 3182 3180 3180 3183 3183 3182 3183
3141 3141 3141 3141 3142 3142 3143 3143 3144 3145 3146 3147 3148 3150 3152 3154 3158 3162 3166 3170 3174 3179 3181 3182 3184 3186 3187 3188 3189 3188 3188 3187 3187 3186 3185 3185 3184 3183 3180 3179 3180 3181 3180 3180 3179
3138 3137 3138 3138 3138 3139 3140 3141 3142 3143 3144 3146 3148 3149 3151 3155 3158 3161 3165 3169 3174 3178 3180 3182 3184 3186 3187 3188 3189 3189 3188 3186 3186 3185 3183 3183 3182 3181 3179 3178 3178 3178 3178 3177 3178
3133 3133 3134 3134 3135 3136 3137 3138 3140 3141 3143 3144 3146 3150 3151 3153 3156 3160 3163 3168 3172 3176 3179 3181 3183 3185 3187 3188 3189 3189 3187 3186 3185 3185 3183 3182 3182 3181 3179 3178 3177 3177 3173 3170 3167
3129 3129 3130 3130 3132 3133 3134 3136 3140 3141 3141 3143 3144 3145 3147 3152 3156 3159 3162 3166 3170 3175 3177 3180 3183 3185 3186 3187 3188 3188 3187 3186 3185 3184 3184 3183 3181 3181 3180 3178 3176 3174 3171 3165 3169
3124 3124 3125 3127 3128 3130 3131 3133 3135 3139 3139 3140 3142 3144 3146 3150 3154 3157 3161 3165 3168 3172 3175 3181 3181 3184 3185 3187 3187 3187 3187 3186 3185 3184 3185 3184 3183 3181 3180 3179 3177 3175 3174 3173 3175
3119 3120 3121 3123 3125 3127 3128 3131 3133 3135 3137 3139 3140 3143 3146 3149 3152 3155 3159 3162 3166 3170 3173 3177 3181 3182 3184 3185 3186 3186 3185 3185 3185 3184 3184 3184 3184 3182 3181 3179 3178 3177 3177 3177 3179
3115 3116 3118 3120 3124 3123 3126 3129 3131 3133 3135 3137 3138 3141 3145 3148 3152 3154 3157 3162 3164 3169 3172 3177 3179 3181 3183 3184 3186 3184 3183 3183 3183 3183 3183 3183 3185 3183 3181 3179 3179 3178 3178 3179 3181
3111 3112 3114 3117 3119 3121 3126 3127 3129 3132 3133 3135 3135 3137 3141 3147 3149 3152 3156 3160 3163 3167 3172 3177 3177 3179 3181 3183 3184 3183 3182 3182 3181 3181 3182 3182 3183 3182 3180 3179 3180 3179 3179 3180 3181
3108 3109 3111 3113 3116 3120 3123 3126 3130 3133 3130 3132 3133 3136 3140 3144 3146 3149 3154 3159 3162 3165 3168 3172 3175 3176 3178 3181 3181 3181 3181 3181 3182 3182 3183 3181 3182 3180 3180 3180 3180 3181 3181 3182 3184
3105 3106 3108 3110 3114 3117 3121 3125 3130 3128 3130 3131 3131 3134 3139 3142 3144 3146 3150 3154 3158 3163 3165 3169 3172 3173 3175 3178 3179 3179 3180 3181 3181 3181 3179 3180 3180 3179 3179 3179 3180 3181 3182 3184 3186
3102 3103 3105 3108 3111 3115 3120 3125 3126 3125 3126 3128 3130 3134 3137 3141 3143 3145 3148 3151 3156 3160 3163 3167 3171 3170 3172 3175 3176 3176 3178 3178 3179 3178 3179 3179 3179 3179 3179 3179 3180 3181 3183 3185 3187
3100 3101 3103 3106 3109 3114 3119 3122 3122 3124 3125 3126 3129 3132 3134 3138 3142 3144 3146 3149 3153 3157 3161 3164 3167 3168 3170 3171 3174 3174 3176 3177 3178 3179 3179 3177 3177 3177 3178 3179 3180 3181 3184 3186 3188
3099 3100 3102 3105 3108 3113 3118 3119 3121 3123 3124 3125 3127 3130 3131 3135 3139 3141 3144 3145 3149 3154 3158 3162 3165 3165 3167 3168 3170 3172 3174 3176 3176 3177 3175 3174 3174 3172 3174 3176 3178 3180 3183 3186 3188
3099 3100 3102 3104 3109 3112 3114 3118 3120 3121 3123 3125 3126 3127 3129 3132 3137 3139 3141 3143 3145 3150 3156 3159 3162 3164 3165 3165 3166 3168 3170 3172 3173 3174 3172 3171 3170 3169 3170 3174 3175 3178 3181 3183 3187
3100 3101 3101 3105 3110 3111 3113 3116 3118 3120 3122 3123 3125 3127 3130 3133 3135 3137 3138 3140 3142 3147 3150 3156 3159 3161 3162 3161 3162 3163 3166 3168 3170 3172 3171 3171 3170 3168 3169 3171 3174 3177 3179 3180 3183
3100 3101 3103 3106 3109 3111 3113 3115 3116 3119 3121 3123 3125 3127 3129 3130 3132 3132 3135 3138 3142 3144 3146 3151 3155 3159 3159 3160 3157 3158 3161 3164 3167 3167 3168 3169 3168 3166 3167 3168 3171 3173 3176 3177 3179
3102 3103 3105 3106 3109 3111 3112 3114 3115 3117 3120 3121 3123 3125 3126 3127 3128 3129 3130 3132 3137 3141 3145 3149 3150 3153 3154 3154 3155 3155 3158 3161 3163 3165 3165 3165 3165 3165 3164 3165 3168 3170 3172 3174 3176
3103 3104 3105 3108 3109 3110 3112 3113 3114 3116 3118 3120 3121 3123 3124 3125 3126 3126 3127 3128 3132 3137 3141 3145 3147 3149 3151 3152 3152 3154 3155 3157 3159 3161 3162 3162 3162 3163 3163 3162 3164 3167 3169 3171 3173
3103 3104 3105 3107 3108 3109 3110 3111 3112 3114 3116 3118 3119 3120 3122 3124 3125 3125 3127 3129 3130 3134 3137 3140 3143 3146 3147 3149 3150 3151 3153 3154 3156 3157 3158 3158 3158 3158 3159 3159 3161 3162 3165 3167 3170
3102 3103 3105 3107 3107 3109 3109 3109 3111 3113 3115 3115 3116 3118 3120 3122 3124 3125 3128 3130 3130 3131 3132 3138 3141 3142 3145 3146 3149 3151 3150 3152 3153 3154 3155 3155 3155 3154 3155 3155 3156 3159 3162 3164 3167
Wind_Speed
5 4 4 3 3 3 2 2 3 4 6 9 12 15 17 17 15 15 15 22 21 20 14 9 5 3 5 7 10 12 12 11 10 10 12 8 8 3 4 2 2 3 2 3 2
5 4 4 4 3 3 3 3 3 4 5 7 8 12 14 16 14 13 19 25 22 21 16 11 5 1 3 4 7 9 9 10 6 7 9 8 5 2 0 3 5 1 2 3 3
6 5 4 4 4 4 3 3 4 4 5 6 7 9 13 13 15 21 25 28 24 22 18 12 4 2 1 2 3 4 6 7 5 5 6 5 5 4 5 5 3 1 2 1 5
6 6 5 4 4 4 4 4 4 4 4 5 7 9 12 15 18 26 23 30 24 25 19 11 5 4 5 5 4 5 5 4 5 6 5 7 9 10 10 7 8 3 2 1 3
7 7 6 6 5 4 5 5 4 4 5 5 6 8 12 18 19 24 23 31 27 27 18 9 5 8 6 5 3 2 2 1 1 3 8 8 11 12 14 14 12 7 4 4 9
9 9 8 7 6 5 5 6 6 5 5 5 6 8 13 19 18 23 25 32 30 27 17 10 7 8 6 4 2 2 3 2 6 9 10 5 10 12 14 19 10 7 7 1 3
11 11 10 10 8 7 6 6 6 6 5 5 6 8 13 21 20 26 26 32 31 27 17 11 11 10 8 4 2 1 2 4 6 4 4 5 10 11 14 9 1 9 8 3 6
13 12 12 11 10 8 7 7 7 6 6 6 7 9 16 21 21 25 26 31 31 26 16 12 12 11 10 5 1 1 2 3 5 7 7 9 12 9 10 5 6 11 9 12 11
14 13 12 12 11 10 8 7 8 7 7 6 8 11 19 19 20 24 25 32 33 26 17 14 15 11 11 7 3 2 5 6 4 8 6 4 6 9 6 5 6 10 14 10 16
15 14 12 12 11 10 8 8 9 8 8 8 9 10 14 22 20 19 23 33 32 26 18 15 16 12 10 5 3 4 7 6 9 8 8 6 6 6 6 5 6 10 15 14 19
15 14 13 11 11 10 9 9 9 9 9 9 9 13 15 21 20 17 21 33 31 28 21 20 19 12 10 6 6 7 9 10 6 4 4 9 8 3 4 4 1 5 6 12 19
15 14 13 11 10 10 10 10 10 7 8 10 9 12 16 23 23 20 21 29 32 29 24 18 22 19 14 13 10 8 11 5 3 8 3 6 6 6 6 7 5 8 14 15 21
14 13 13 11 11 11 12 11 9 8 6 8 14 14 16 24 26 23 24 26 31 31 26 22 8 19 19 12 10 11 12 7 4 6 3 8 8 5 5 6 8 7 9 13 16
12 12 12 11 12 14 11 10 8 6 5 6 14 17 15 22 24 23 23 24 25 28 28 27 22 15 9 11 9 9 4 3 5 3 3 4 3 4 7 7 6 6 12 13 16
10 11 10 11 13 13 11 10 8 6 3 6 15 20 18 17 14 27 24 22 25 27 25 19 11 12 14 10 5 3 3 4 4 6 4 1 3 4 6 7 7 5 11 12 17
8 10 10 12 14 13 13 13 9 3 3 7 14 22 19 18 12 25 27 23 19 22 24 24 12 14 15 10 5 4 2 3 2 6 5 2 3 6 5 8 8 7 14 18 19
8 9 10 13 14 15 16 14 6 4 7 9 16 20 18 19 12 14 32 30 20 18 17 17 22 19 14 11 7 5 6 2 3 4 1 3 2 4 10 12 10 11 15 14 18
7 8 11 13 14 15 18 16 5 5 7 9 10 16 20 19 12 14 22 27 28 18 16 16 14 20 14 11 7 6 9 4 3 2 1 5 4 7 14 15 15 13 14 17 17
4 6 10 13 15 16 19 16 3 7 6 6 12 18 20 20 13 17 21 24 29 23 9 15 12 12 13 9 8 9 9 10 4 0 3 2 3 9 16 19 19 16 14 17 17
2 6 10 13 17 18 21 13 7 7 7 10 8 13 18 24 16 15 20 20 29 28 18 5 8 11 9 12 13 10 8 6 7 3 3 3 5 9 21 21 19 19 16 14 13
4 8 12 16 18 18 22 16 11 7 8 9 6 9 13 25 17 16 11 7 23 29 24 18 8 8 12 6 11 18 14 6 8 3 3 2 2 9 15 21 23 20 17 15 13
4 7 15 18 20 19 20 19 13 9 6 4 7 10 17 11 16 16 17 9 12 25 29 22 9 10 13 11 11 18 18 18 11 6 7 3 4 12 15 14 18 24 19 16 15
4 9 14 17 17 14 14 13 15 14 8 8 6 10 9 3 11 18 16 16 16 15 27 29 14 7 3 8 7 20 23 21 17 14 13 7 6 7 21 16 13 16 20 16 17
10 8 14 16 11 12 10 10 9 10 10 10 7 8 6 4 9 8 11 18 20 19 19 21 21 16 11 2 6 18 21 18 14 11 11 16 12 12 16 21 22 17 19 18 16
7 3 10 14 11 9 8 8 11 9 11 7 10 11 6 4 8 7 8 13 20 22 24 21 20 23 21 13 13 13 20 20 20 16 13 13 18 18 18 20 23 21 17 21 17
8 6 9 10 8 6 6 7 13 14 10 8 9 13 7 8 3 8 11 9 12 21 24 25 13 18 18 16 14 13 14 15 16 19 20 19 19 16 21 21 23 24 19 21 19
11 7 9 12 8 5 3 7 12 14 11 9 7 16 10 8 3 4 11 5 6 15 22 26 16 15 11 15 14 11 15 14 15 17 17 17 18 17 21 21 22 23 21 22 21
Wind_Direction
3 358 352 340 330 314 304 279 246 233 229 228 226 221 219 217 211 197 180 175 172 162 176 164 155 133 81 68 95 100 93 87 86 62 56 106 88 138 131 136 63 58 7 339 318
354 348 337 328 322 304 300 288 272 245 242 232 227 219 215 212 205 183 180 178 177 166 182 174 177 97 48 89 107 106 87 53 63 65 57 59 65 82 81 19 17 4 81 263 255
344 338 330 321 305 297 286 287 278 265 246 235 226 215 209 196 185 169 188 177 176 174 183 182 163 203 188 156 118 108 86 65 62 42 23 20 5 351 343 305 351 239 30 297 229
332 328 321 315 304 286 274 266 271 268 260 236 223 215 201 184 175 184 185 175 175 178 185 171 191 190 121 166 167 135 113 105 71 58 22 334 325 328 311 294 293 308 189 153 161
316 312 313 309 299 290 271 260 258 257 253 235 222 211 194 181 182 190 180 178 175 179 180 172 175 171 138 140 109 88 128 313 352 297 319 313 309 306 310 304 301 246 202 165 149
299 298 297 298 295 282 271 257 248 244 246 235 218 204 191 182 184 179 181 182 175 181 172 182 178 174 148 140 123 156 179 225 282 300 303 277 294 296 307 306 294 212 207 172 213
290 286 286 287 287 276 265 253 242 239 235 232 211 199 187 180 180 179 181 182 180 183 175 188 190 182 165 173 171 265 301 279 312 355 311 283 274 285 323 331 164 188 184 325 249
288 282 275 275 277 275 259 251 236 230 228 222 204 195 176 187 179 184 186 185 186 186 178 188 192 185 185 202 218 355 13 120 338 337 301 267 279 323 332 316 179 207 235 333 222
284 280 276 267 266 264 253 244 231 224 219 216 200 194 186 187 183 189 189 190 193 186 186 193 196 194 199 227 230 346 346 18 11 353 339 260 312 338 330 310 254 273 290 292 203
277 274 271 266 259 253 246 235 227 221 214 206 200 183 193 191 183 184 190 193 197 189 193 199 204 209 210 232 227 328 357 11 353 356 20 7 2 353 344 319 286 298 291 269 197
273 266 263 260 250 244 235 227 221 222 211 201 193 197 189 187 184 185 188 196 200 195 199 204 215 218 219 260 254 307 328 333 355 353 356 10 6 354 43 23 24 341 32 119 190
274 259 255 251 241 234 229 222 219 213 202 207 197 190 183 183 186 190 190 196 202 200 204 212 222 224 232 269 273 290 302 330 11 347 309 51 81 97 75 61 62 68 125 113 126
269 256 250 241 230 224 222 217 212 209 199 203 199 191 182 184 192 191 192 192 204 203 209 216 221 230 246 251 259 268 284 294 298 322 234 118 84 104 95 71 66 100 138 128 140
256 249 247 233 222 217 217 211 201 198 215 216 198 192 191 190 193 191 194 196 199 205 211 223 232 243 232 232 254 291 312 268 281 264 203 232 139 111 83 79 76 119 138 148 142
252 246 239 224 216 213 209 194 188 167 179 185 177 182 182 180 202 196 196 199 205 207 210 217 239 236 230 218 253 311 351 339 313 220 185 138 160 190 97 98 100 105 153 137 144
252 245 232 216 213 203 190 184 177 179 179 165 174 179 174 177 191 199 197 202 205 212 220 224 212 210 219 219 264 301 297 75 132 175 217 247 179 198 137 118 120 121 149 140 145
262 240 219 211 205 193 183 175 179 203 163 169 178 180 182 173 174 192 197 200 199 199 213 221 221 212 218 236 242 240 168 183 196 215 278 223 225 179 154 132 137 138 153 148 157
260 229 210 207 199 189 179 176 192 137 146 161 182 185 188 186 196 195 198 196 202 201 207 206 219 213 219 229 217 220 196 199 240 245 24 232 227 174 164 143 147 140 153 153 154
252 215 201 194 191 180 177 184 155 143 138 170 167 183 194 194 190 197 208 203 201 187 176 190 222 209 213 214 211 226 203 221 229 226 263 232 244 184 178 161 158 151 152 154 156
225 191 190 187 183 177 182 182 139 125 133 152 168 189 193 186 190 194 198 217 208 199 194 199 214 209 205 228 224 225 221 183 214 220 257 244 244 193 185 182 178 173 178 182 181
176 178 176 180 179 180 193 188 171 138 130 135 145 182 183 183 193 195 200 199 205 202 201 217 220 207 195 206 227 219 208 199 186 187 268 283 279 185 212 199 193 193 187 181 190
157 179 174 175 178 194 204 206 207 203 165 165 137 139 163 171 210 216 218 193 202 203 199 209 230 251 250 273 266 216 211 215 219 228 220 239 271 186 168 190 202 208 207 203 212
192 182 169 176 189 205 219 227 229 209 197 190 159 167 177 250 209 211 225 222 221 204 212 211 221 239 248 260 231 200 207 214 219 238 224 219 246 234 208 207 212 207 203 201 198
132 153 168 172 194 207 218 230 211 200 210 205 209 204 230 249 194 195 229 222 217 217 204 207 214 205 212 172 181 193 195 200 209 209 214 225 248 249 252 230 217 215 214 205 206
184 179 181 187 179 194 202 199 187 180 186 204 225 210 222 244 193 208 221 200 194 204 207 208 214 229 233 263 274 212 201 200 212 217 220 245 245 248 247 255 226 217 227 218 222
198 204 192 184 190 195 197 191 188 182 192 213 220 203 223 230 191 198 196 191 191 200 208 203 211 218 235 251 213 196 206 212 223 229 234 238 246 257 236 241 228 224 221 216 221
212 209 191 179 170 186 214 197 190 189 195 215 209 200 218 192 150 188 181 197 183 190 188 201 212 207 197 191 197 206 209 226 237 236 239 244 252 257 246 240 229 221 214 215 224